ECHOSTAR 1

导读

ECHOSTAR 1是美国EchoStar公司运营的通信卫星,于1995年12月28日发射入轨,定位于地球静止轨道。该卫星是EchoStar卫星星座的早期成员,主要承担北美区域直接到户的卫星电视广播传输服务,为民众提供高质量电视信号覆盖。作为企业通信布局的开端,它验证了EchoStar静止轨道通信技术,推动后续卫星通信服务拓展,奠定了该星座在卫星电视、通信服务领域发展的基础。

基本信息
目录编号:
23754
目录名称:
ECHOSTAR 1
国际标识:
1995-073A
轨道中心:
EARTH
卫星名称:
ECHOSTAR 1
卫星全名:
--
卫星状态:
在轨 (已飞行11169 天)
发射日期:
1995-12-28 UTC
国别 :
美国 (US)
星等 :
--
轨道信息
数据来源 国际轨道数据 AOE轨道数据
星历时间 2026-07-27T05:17:27+0800
1天前
查看轨道信息
2026-07-24T15:00:00+0800
3天前
查看轨道信息
半长轴 42543.523km 42543.437km
偏心率 0.0001852 0.0001899
轨道倾角 8.712° 8.706°
近地点辐角 31.772° 28.422°
升交点赤经 62.472° 62.502°
平近点角 148.178° 307.066°
近地点 36157.506km 36157.221km
远地点 36173.266km 36173.379km
周期 1455.492分钟 1455.488分钟
每日圈数 0.989356 0.989359
详细信息
使用方式:
暂无
2D轨道图
3D轨道图
轨道高度分析图
轨道倾角分析图
轨道综合分析图
查看轨道综合分析图